Location: Newark
(46.7000°N, 60.6000°W)
Time: 13:56:28
(UTC+00:00)

Explorer 7 - Visible Passes

Search period start: 31 October 2020 00:00
Search period end: 10 November 2020 00:00
Orbit: 484 x 678 km, 50.3° (Epoch: 31 October)

Date Brightness Start Highest point End Pass type
(mag) Time Alt. Az. Time Alt. Az. Time Alt. Az.
31 Oct 7.8 22:16:45 10° WNW 22:20:30 43° SSW 22:23:36 15° SE visible
01 Nov 8.5 22:21:39 10° W 22:25:03 29° SW 22:28:38 10° SSE visible
02 Nov 9.2 22:26:45 10° W 22:29:35 19° SW 22:32:31 10° S visible
03 Nov 9.7 22:32:27 10° WSW 22:34:02 12° SW 22:35:40 10° SSW visible
